Regional Weather Roundup
Issued by NWS

Home | Current Version | Previous Version | Graphics & Text | Print | Product List | Glossary On
Versions: 1 2 3 4 5 6 7 8 9 10 11 12 13 14 15 16 17 18 19 20 21 22 23 24 25 26 27 28
000
ASUS45 KCYS 242010
RWRWY

WYOMING REGIONAL WEATHER ROUNDUP
NATIONAL WEATHER SERVICE CHEYENNE WY
200 PM MDT WED AUG 24 2016

NOTE:  "FAIR" INDICATES FEW OR NO CLOUDS BELOW 12,000 FEET
WITH NO SIGNIFICANT WEATHER AND/OR OBSTRUCTIONS TO VISIBILITY.

WYZ001-242100-
YELLOWSTONE NATIONAL PARK

CITY           SKY/WX    TMP DP  RH WIND       PRES   REMARKS
LK YELLOWSTONE   N/A     56  28  34 CALM      30.31F
W YELLOWSTONE  NOT AVBL

$$
WYZ002>013-054>058-071-098>099-242100-
NORTHERN WYOMING

CITY           SKY/WX    TMP DP  RH WIND       PRES   REMARKS
JACKSON        SUNNY     70  18  13 SW6       30.20F
CODY           FAIR      61  45  55 N14       30.26F
GREYBULL       FAIR      72  38  29 NW13      30.18F
WORLAND        FAIR      71  36  27 NW7       30.18F
SHERIDAN       PTSUNNY   67  44  43 NW13      30.24S
BUFFALO        CLOUDY    64  40  41 N17G25    30.27S
GILLETTE       FAIR      67  43  41 N13       30.21F
HULETT         FAIR      68  41  37 N8G16     30.23S
NEWCASTLE      FAIR      70  32  24 W8G16     30.20F

$$
WYZ014>020-022>026-101>103-242100-
CENTRAL WYOMING

CITY           SKY/WX    TMP DP  RH WIND       PRES   REMARKS
BIG PINEY      FAIR      69  18  14 VRB5      30.22F
PINEDALE       FAIR      66  12  12 CALM      30.24F
DUBOIS         FAIR      63  27  25 E15G21    30.26F
LANDER         FAIR      67  35  30 MISG      30.21F
RIVERTON       FAIR      67  35  30 VRB5      30.22F
CASPER         FAIR      70  36  28 E8        30.20F
DOUGLAS        FAIR      72  34  24 VRB5      30.20F

$$
WYZ021-027>030-104>119-242100-
SOUTHERN WYOMING

CITY           SKY/WX    TMP DP  RH WIND       PRES   REMARKS
EVANSTON       FAIR      72  10   9 W29G39    30.24F
FORT BRIDGER   CLEAR     75  16  10 W23G35    30.25F
ROCK SPRINGS   FAIR      73  15  11 VRB7G26   30.20F
DIXON          FAIR      75  37  25 W14G20    30.19F
RAWLINS        FAIR      67  34  29 S3        30.21F
SARATOGA       MOCLDY    70  32  24 N12G22    30.22F
LARAMIE        FAIR      68  40  35 SE23G32   30.22F
CHEYENNE       FAIR      63  44  50 S16G25    30.25F
TORRINGTON     FAIR      74  44  34 SE12G18   30.16F
PINE BLUFFS    FAIR      68  37  32 S10G21    30.22F

$$




USA.gov is the U.S. government's official web portal to all federal, state and local government web resources and services.